Timaru (NZTU)

Aerodrome — Elev 89
New Zealand
S044.18.10.001 E171.13.31.001
Loading chart...

Current Weather

NZTU 220600Z 10006KT 070V130 20KM SCT023 SCT200 21/17 Q1010 RMK AUTO VATSIM USE

Published 42 minutes ago

Airport Activity

Loading chart...
Loading chart...

Positions

CallsignRadio Name / Freq / Voice Room / TypeFrequencyVoice RoomType
NZCH-D_CTR Christchurch Control
129.200
nzch-d_ctr
129.200nzch-d_ctr
NZCH-S_CTR Christchurch Control
129.300
nzch-s_ctr
129.300nzch-s_ctr
UNICOM NZZC UNICOM
122.800
unicom_nzzc
122.800unicom_nzzc

Charts

Departure Charts

SID RWY 02 & 20